Glenwood Springs, CO

12:54 PM MST on February 26, 2017 (GMT -0700)
Sunlight Mountain

Weather History for K5SM - September, 2013

Change the Weather History Date:

Saturday, September 14, 2013

  Actual Average (KRIL) Record (KRIL)
Temperature  
Mean Temperature 48 °F -  
Max Temperature 55 °F 79 °F 99 °F (1990)
Min Temperature 42 °F 41 °F 29 °F (1993)
Degree Days  
Heating Degree Days 16    
Moisture  
Dew Point 45 °F    
Average Humidity 93    
Maximum Humidity 100    
Minimum Humidity 77    
Precipitation  
Precipitation 0.00 in - - ()
Sea Level Pressure  
Sea Level Pressure 30.33 in    
Wind  
Wind Speed 0 mph (SSW)    
Max Wind Speed 5 mph    
Max Gust Speed -    
Visibility 8 miles    
Events Rain , Thunderstorm    
Averages and records for this station are not official NWS values.
T = Trace of Precipitation, MM = Missing Value Source: NWS Daily Summary

Daily Weather History Graph

Daily Weather History Graph

Search for Another Location

Airport or City:

Trip Planner

Search our weather history database for the weather conditions in past years. The results will help you decide how hot, cold, wet, or windy it might be!

Date:

Astronomy

Sep. 14, 2013 Rise Set
Actual Time 6:50 AM MDT 7:19 PM MDT
Civil Twilight 6:23 AM MDT 7:46 PM MDT
Nautical Twilight 5:51 AM MDT 8:17 PM MDT
Astronomical Twilight 5:18 AM MDT 8:50 PM MDT
Moon 4:01 PM MDT (9/14) 1:26 AM MDT (9/14)
Length of Visible Light 13h 22m
Length of Day
12h 29m
Waxing Gibbous, 73% of the Moon is Illuminated
Sep 14
Waxing Gibbous
Sep 19
Full
Sep 26
Last Quarter
Oct 4
New
Oct 11
First Quarter

Hourly Weather History & Observations

Time (MDT) Temp. Windchill Dew Point Humidity Pressure Visibility Wind Dir Wind Speed Gust Speed Precip Events Conditions
12:18 AM 44.6 °F - 42.8 °F 93% 30.33 in 10.0 mi Calm Calm - N/A   Clear
12:37 AM 44.6 °F - 42.8 °F 93% 30.33 in 10.0 mi Calm Calm - N/A Thunderstorm Clear
12:58 AM 44.6 °F - 42.8 °F 93% 30.33 in 10.0 mi Calm Calm - N/A Thunderstorm Clear
1:18 AM 44.6 °F - 42.8 °F 93% 30.33 in 10.0 mi Calm Calm - N/A Thunderstorm Mostly Cloudy
1:38 AM 44.6 °F - 44.6 °F 100% 30.33 in 10.0 mi Calm Calm - N/A Thunderstorm Overcast
1:58 AM 44.6 °F - 42.8 °F 93% 30.33 in 10.0 mi Calm Calm - N/A Thunderstorm Mostly Cloudy
2:18 AM 44.6 °F - 42.8 °F 93% 30.33 in 10.0 mi Calm Calm - N/A Thunderstorm Thunderstorm
2:38 AM 44.6 °F - 44.6 °F 100% 30.33 in 10.0 mi Calm Calm - N/A Thunderstorm Thunderstorm
2:58 AM 44.6 °F 42.2 °F 42.8 °F 93% 30.33 in 10.0 mi WSW 4.6 mph - N/A Thunderstorm Overcast
3:18 AM 44.6 °F - 44.6 °F 100% 30.32 in 7.0 mi Calm Calm - N/A Thunderstorm Unknown
3:37 AM 44.6 °F - 44.6 °F 100% 30.32 in 1.5 mi Calm Calm - N/A Rain , Thunderstorm Rain
3:58 AM 44.6 °F - 44.6 °F 100% 30.32 in 1.0 mi Calm Calm - N/A Rain , Thunderstorm Rain
4:18 AM 44.6 °F - 42.8 °F 93% 30.31 in 10.0 mi Calm Calm - N/A Thunderstorm Overcast
4:38 AM 44.6 °F - 42.8 °F 93% 30.31 in 10.0 mi Calm Calm - N/A   Overcast
4:58 AM 44.6 °F - 44.6 °F 100% 30.31 in 7.0 mi Calm Calm - N/A Rain , Thunderstorm Rain
5:18 AM 44.6 °F - 44.6 °F 100% 30.31 in 10.0 mi Calm Calm - N/A   Overcast
5:38 AM 44.6 °F - 44.6 °F 100% 30.31 in 7.0 mi Calm Calm - N/A Thunderstorm Overcast
5:58 AM 44.6 °F - 42.8 °F 93% 30.31 in 10.0 mi Calm Calm - N/A   Overcast
6:18 AM 44.6 °F - 42.8 °F 93% 30.31 in 10.0 mi Calm Calm - N/A Thunderstorm Thunderstorm
6:38 AM 44.6 °F - 42.8 °F 93% 30.32 in 7.0 mi Calm Calm - N/A Rain , Thunderstorm Thunderstorms and Rain
6:58 AM 44.6 °F - 42.8 °F 93% 30.32 in 0.8 mi Calm Calm - N/A Rain Light Rain
7:18 AM 44.6 °F - 42.8 °F 93% 30.33 in 0.5 mi Calm Calm - N/A Rain Rain
7:38 AM 42.8 °F - 42.8 °F 100% 30.32 in 0.5 mi Calm Calm - N/A Rain Light Rain
7:58 AM 42.8 °F - 42.8 °F 100% 30.33 in 0.8 mi Calm Calm - N/A Rain Rain
8:18 AM 42.8 °F - 42.8 °F 100% 30.33 in 0.5 mi Calm Calm - N/A Rain Rain
8:38 AM 42.8 °F - 42.8 °F 100% 30.33 in 1.5 mi Calm Calm - N/A Rain , Thunderstorm Rain
8:58 AM 42.8 °F - 42.8 °F 100% 30.33 in 0.8 mi Calm Calm - N/A Rain Rain
9:18 AM 44.6 °F - 42.8 °F 93% 30.34 in 1.8 mi Calm Calm - N/A   Drizzle
9:38 AM 44.6 °F - 42.8 °F 93% 30.34 in 0.8 mi Calm Calm - N/A Rain Rain
9:58 AM 44.6 °F - 44.6 °F 100% 30.34 in 0.8 mi Calm Calm - N/A Rain Light Rain
10:17 AM 44.6 °F - 44.6 °F 100% 30.34 in 0.8 mi Calm Calm - N/A   Overcast
10:38 AM 44.6 °F 43.1 °F 44.6 °F 100% 30.35 in 2.0 mi SSW 3.5 mph - N/A Rain Light Rain
10:58 AM 46.4 °F - 44.6 °F 93% 30.34 in 2.5 mi Calm Calm - N/A Rain Light Rain
11:18 AM 44.6 °F - 44.6 °F 100% 30.34 in 0.8 mi Calm Calm - N/A Rain Light Rain
11:38 AM 46.4 °F - 46.4 °F 100% 30.34 in 2.5 mi Calm Calm - N/A Thunderstorm Overcast
11:58 AM 50.0 °F - 50.0 °F 100% 30.34 in 10.0 mi SSW 3.5 mph - N/A   Mostly Cloudy
12:18 PM 50.0 °F - 48.2 °F 94% 30.34 in 10.0 mi Calm Calm - N/A   Overcast
12:38 PM 51.8 °F - 50.0 °F 94% 30.34 in 7.0 mi Calm Calm - N/A   Overcast
12:58 PM 50.0 °F - 46.4 °F 87% 30.35 in 10.0 mi Calm Calm - N/A   Overcast
1:17 PM 50.0 °F - 48.2 °F 94% 30.35 in 10.0 mi Calm Calm - N/A   Overcast
1:37 PM 51.8 °F - 50.0 °F 94% 30.34 in 10.0 mi Calm Calm - N/A Thunderstorm Overcast
1:58 PM 51.8 °F - 46.4 °F 82% 30.33 in 10.0 mi Calm Calm - N/A   Overcast
2:18 PM 51.8 °F - 50.0 °F 94% 30.33 in 10.0 mi Calm Calm - N/A Rain , Thunderstorm Light Thunderstorms and Rain
2:38 PM 51.8 °F - 46.4 °F 82% 30.33 in 10.0 mi Calm Calm - N/A   Overcast
2:58 PM 53.6 °F - 50.0 °F 88% 30.32 in 10.0 mi Calm Calm - N/A   Mostly Cloudy
3:18 PM 51.8 °F - 48.2 °F 88% 30.32 in 10.0 mi Calm Calm - N/A Thunderstorm Mostly Cloudy
3:38 PM 55.4 °F - 48.2 °F 77% 30.32 in 10.0 mi Calm Calm - N/A Thunderstorm Mostly Cloudy
3:58 PM 51.8 °F - 46.4 °F 82% 30.32 in 10.0 mi Calm Calm - N/A Thunderstorm Mostly Cloudy
4:18 PM 50.0 °F - 46.4 °F 87% 30.32 in 10.0 mi Calm Calm - N/A   Scattered Clouds
4:37 PM 51.8 °F - 46.4 °F 82% 30.32 in 10.0 mi Calm Calm - N/A Thunderstorm Mostly Cloudy
4:57 PM 51.8 °F - 46.4 °F 82% 30.32 in 10.0 mi Calm Calm - N/A   Mostly Cloudy
5:18 PM 53.6 °F - 46.4 °F 77% 30.32 in 10.0 mi Calm Calm - N/A Thunderstorm Overcast
5:38 PM 51.8 °F - 46.4 °F 82% 30.32 in 10.0 mi Calm Calm - N/A   Mostly Cloudy
5:58 PM 50.0 °F - 46.4 °F 87% 30.32 in 10.0 mi Calm Calm - N/A   Scattered Clouds
6:18 PM 50.0 °F - 46.4 °F 87% 30.32 in 10.0 mi Calm Calm - N/A   Scattered Clouds
6:38 PM 48.2 °F - 46.4 °F 93% 30.32 in 10.0 mi Calm Calm - N/A   Scattered Clouds
6:58 PM 46.4 °F - 46.4 °F 100% 30.32 in 10.0 mi Calm Calm - N/A   Scattered Clouds
7:18 PM 46.4 °F - 44.6 °F 93% 30.33 in 10.0 mi Calm Calm - N/A   Clear
7:38 PM 44.6 °F - 44.6 °F 100% 30.33 in 10.0 mi Calm Calm - N/A   Clear
7:58 PM 44.6 °F - 44.6 °F 100% 30.34 in 10.0 mi Calm Calm - N/A   Mostly Cloudy
8:18 PM 46.4 °F - 44.6 °F 93% 30.35 in 10.0 mi Calm Calm - N/A   Overcast
8:38 PM 46.4 °F - 44.6 °F 93% 30.35 in 10.0 mi Calm Calm - N/A   Overcast
8:58 PM 46.4 °F - 44.6 °F 93% 30.35 in 10.0 mi Calm Calm - N/A   Overcast
9:18 PM 44.6 °F - 42.8 °F 93% 30.36 in 10.0 mi Calm Calm - N/A   Mostly Cloudy
9:38 PM 44.6 °F - 42.8 °F 93% 30.36 in 10.0 mi Calm Calm - N/A   Overcast
9:58 PM 44.6 °F - 42.8 °F 93% 30.36 in 10.0 mi Calm Calm - N/A   Mostly Cloudy
10:18 PM 44.6 °F - 42.8 °F 93% 30.36 in 10.0 mi Calm Calm - N/A   Scattered Clouds
10:38 PM 44.6 °F - 41.0 °F 87% 30.37 in 10.0 mi Calm Calm - N/A   Clear
10:58 PM 42.8 °F - 41.0 °F 93% 30.37 in 10.0 mi Calm Calm - N/A   Scattered Clouds
11:18 PM 42.8 °F - 41.0 °F 93% 30.37 in 10.0 mi Calm Calm - N/A   Scattered Clouds
11:38 PM 44.6 °F - 41.0 °F 87% 30.37 in 10.0 mi Calm Calm - N/A   Clear
11:58 PM 42.8 °F - 41.0 °F 93% 30.37 in 10.0 mi Calm Calm - N/A   Clear